sat.trackr.live / text

‹ back to catalog

SES-1

NORAD 36516 · 2010-016A

PAYLOAD ACTIVE UNKNOWN

§ Identity

Operator
Country
SES
Launch date
2010-04-24
Launch site
TYMSC
Launch vehicle
Mass (kg)
RCS (m²)
26.98

Purposes: comms

External: N2YO · Heavens-Above · Gunter

§ Orbital elements

Epoch: 2026-09-20T04:19:38.599104Z

Period
1,436.09 min
Inclination
0.0466°
Eccentricity
0.0002579
Mean motion
1.00272321 rev/d
Perigee alt
35,775.6 km
Apogee alt
35,797.3 km
Semi-major
42,164.6 km
B*
0.0000e+0
RAAN
283.7461°
Arg perigee
262.1675°
Mean anomaly
137.0890°
Rev number
5,998

§ Raw data

SES-11 36516U 10016A   26263.18030786 -.00000119  00000+0  00000+0 0  99912 36516   0.0466 283.7461 0002579 262.1675 137.0890  1.00272321 59989

JSON: /api/v1/satellites/36516 · /tle

For live sub-satellite position, see the globe view (requires WebGL).

§ Visibility from observer

Set your observer location to see the next 7 days of passes ≥ 10°. The values pass through the URL so the page stays shareable.

No JS? Fill the form by hand. The geolocation button needs JavaScript.